MPEC 2008-E47 : 2008 EV5

The following Minor Planet Electronic Circular may be linked-to from your own Web pages, but must not otherwise be redistributed electronically.


Read MPEC 2008-E46 Read MPEC 2008-E48


M.P.E.C. 2008-E47                                Issued 2008 Mar. 5, 13:00 UT

     The Minor Planet Electronic Circulars contain information on unusual
         minor planets and routine data on comets.  They are published
   on behalf of Commission 20 of the International Astronomical Union by the
          Minor Planet Center, Smithsonian Astrophysical Observatory,
                          Cambridge, MA 02138, U.S.A.

             Prepared using the Tamkin Foundation Computer Network

                              MPC@CFA.HARVARD.EDU
          URL http://www.cfa.harvard.edu/iau/mpc.html  ISSN 1523-6714

                                   2008 EV5

Observations:
     K08E05V* C2008 03 04.21432 04 07 59.98 +32 54 57.4          21.0 V EE047G96
     K08E05V  C2008 03 04.21882 04 08 01.14 +32 55 01.1          20.5 V EE047G96
     K08E05V  C2008 03 04.22329 04 08 02.18 +32 55 06.3          21.0 V EE047G96
     K08E05V  C2008 03 04.22774 04 08 03.37 +32 55 09.9          19.8 V EE047G96
     K08E05V IC2008 03 04.85793 04 10 37.36 +33 06 23.8                 EE047J95
     K08E05V  C2008 03 04.86301 04 10 38.56 +33 06 30.2          20.7 R EE047J95
     K08E05V IC2008 03 04.87509 04 10 41.47 +33 06 42.5                 EE047J95
     K08E05V  C2008 03 05.10679 04 11 38.18 +33 10 54.8          20.9 V EE047G96
     K08E05V  C2008 03 05.10785 04 11 38.42 +33 10 55.9          22.2 V EE047291
     K08E05V  C2008 03 05.10807 04 11 38.50 +33 10 56.1          20.8 V EE047G96
     K08E05V  C2008 03 05.10936 04 11 38.79 +33 10 57.9          20.5 V EE047G96
     K08E05V  C2008 03 05.11071 04 11 39.15 +33 10 59.1          20.8 V EE047G96
     K08E05V  C2008 03 05.11286 04 11 39.60 +33 11 01.4          22.4 V EE047291
     K08E05V HC2008 03 05.11745 04 11 40.56 +33 11 06.3                 EE047291

Observer details:
291 LPL/Spacewatch II.  Observer J. V. Scotti.  1.8-m f/2.7 reflector + CCD.
G96 Mt. Lemmon Survey.  Observer A. Boattini.  Measurers E. C. Beshore,
    A. Boattini, G. J. Garradd, A. R. Gibbs, A. D. Grauer, R. E. Hill,
    R. A. Kowalski, S. M. Larson, R. H. McNaught.  1.5-m reflector + CCD.
J95 Great Shefford.  Observer P. Birtwhistle.  0.40-m f/6.0 Schmidt-Cassegrain
    + CCD.

Orbital elements:
2008 EV5                                            PHA, Earth MOID = 0.0096 AU
Epoch 2008 Feb. 24.0 TT = JDT 2454520.5                 MPC
M 157.25327              (2000.0)            P               Q
n   1.06414257     Peri.  235.26532     +0.85581682     +0.50133396
a   0.9501733      Node    94.33736     -0.42292757     +0.82000556
e   0.0923050      Incl.    7.34303     -0.29784197     +0.27614334
P   0.93           H   20.0           G   0.15
From 14 observations 2008 Mar. 4-5.

Ephemeris:
2008 EV5                 a,e,i = 0.95, 0.09, 7                   q = 0.8625
Date    TT    R. A. (2000) Decl.     Delta      r     Elong.  Phase     V
2008 03 05    04 11.21   +33 09.0    0.457    1.036    82.5    71.6    20.9
2008 03 15    04 52.29   +35 35.0    0.479    1.038    81.5    71.4    21.0
2008 03 25    05 33.84   +37 01.9    0.498    1.037    80.3    71.4    21.1
2008 04 04    06 15.30   +37 32.1    0.514    1.034    79.0    71.8    21.1
2008 04 14    06 56.09   +37 08.8    0.526    1.028    77.6    72.4    21.2
2008 04 24    07 35.56   +35 56.0    0.534    1.019    76.1    73.3    21.2
2008 05 04    08 13.24   +33 58.1    0.537    1.009    74.6    74.5    21.3
2008 05 14    08 48.93   +31 19.3    0.535    0.997    73.1    76.0    21.3
2008 05 24    09 22.46   +28 04.3    0.528    0.983    71.6    77.8    21.3
2008 06 03    09 53.84   +24 16.8    0.515    0.968    70.0    80.0    21.3
2008 06 13    10 23.20   +19 59.5    0.497    0.952    68.3    82.6    21.3
2008 06 23    10 50.56   +15 15.5    0.474    0.935    66.6    85.7    21.2
2008 07 03    11 15.94   +10 06.1    0.447    0.919    64.7    89.2    21.2
2008 07 13    11 39.29   +04 32.2    0.416    0.904    62.6    93.3    21.2
2008 07 23    12 00.26   -01 25.0    0.382    0.890    60.2    97.9    21.2

Timothy B. Spahr             (C) Copyright 2008 MPC           M.P.E.C. 2008-E47

Read MPEC 2008-E46 Read MPEC 2008-E48


Our Web policy. Index to the CBAT/MPC/ICQ pages.

MPC

Valid HTML 4.01!